TimeCDT,TemperatureF,Dew PointF,Humidity,Sea Level PressureIn,VisibilityMPH,Wind Direction,Wind SpeedMPH,Gust SpeedMPH,PrecipitationIn,Events,Conditions,WindDirDegrees,DateUTC
12:53 AM,60.1,46.0,60,29.89,10.0,South,12.7,18.4,N/A,,Mostly Cloudy,180,2013-04-28 05:53:00
1:53 AM,59.0,45.0,60,29.89,10.0,South,8.1,-,N/A,,Partly Cloudy,180,2013-04-28 06:53:00
2:53 AM,57.9,45.0,62,29.88,10.0,South,8.1,-,N/A,,Clear,190,2013-04-28 07:53:00
3:53 AM,55.9,46.0,69,29.87,10.0,SSW,8.1,17.3,N/A,,Partly Cloudy,210,2013-04-28 08:53:00
4:53 AM,55.0,45.0,69,29.86,10.0,South,10.4,17.3,N/A,,Partly Cloudy,190,2013-04-28 09:53:00
5:53 AM,54.0,45.0,72,29.86,10.0,South,6.9,-,N/A,,Partly Cloudy,190,2013-04-28 10:53:00
6:53 AM,54.0,46.0,75,29.85,10.0,South,8.1,-,N/A,,Scattered Clouds,180,2013-04-28 11:53:00
7:53 AM,55.4,46.4,72,29.83,10.0,SSE,9.2,-,N/A,,Scattered Clouds,160,2013-04-28 12:53:00
8:53 AM,61.0,46.9,60,29.82,10.0,SSE,10.4,-,N/A,,Scattered Clouds,160,2013-04-28 13:53:00
9:53 AM,64.0,46.9,54,29.80,10.0,South,15.0,-,N/A,,Mostly Cloudy,170,2013-04-28 14:53:00
10:53 AM,66.9,46.0,47,29.77,1.2,South,16.1,25.3,N/A,,Haze,180,2013-04-28 15:53:00
10:58 AM,68.0,46.4,46,29.78,10.0,South,17.3,25.3,N/A,,Mostly Cloudy,170,2013-04-28 15:58:00
11:53 AM,71.1,46.0,41,29.76,10.0,South,23.0,26.5,N/A,,Mostly Cloudy,170,2013-04-28 16:53:00
12:53 PM,73.0,46.0,38,29.74,10.0,South,15.0,-,N/A,,Mostly Cloudy,170,2013-04-28 17:53:00
1:53 PM,75.0,45.0,34,29.72,10.0,South,11.5,21.9,N/A,,Mostly Cloudy,190,2013-04-28 18:53:00
2:53 PM,77.0,46.0,33,29.71,10.0,South,15.0,20.7,N/A,,Overcast,170,2013-04-28 19:53:00
3:53 PM,79.0,45.0,30,29.68,10.0,SSW,10.4,20.7,N/A,,Mostly Cloudy,200,2013-04-28 20:53:00
4:53 PM,80.1,45.0,29,29.66,10.0,South,15.0,25.3,N/A,,Mostly Cloudy,190,2013-04-28 21:53:00
5:53 PM,80.1,44.1,28,29.63,10.0,South,9.2,17.3,N/A,,Mostly Cloudy,180,2013-04-28 22:53:00
6:53 PM,73.0,50.0,44,29.66,10.0,South,10.4,18.4,0.00,,Mostly Cloudy,190,2013-04-28 23:53:00
7:53 PM,71.1,48.9,45,29.68,10.0,SW,6.9,-,N/A,,Mostly Cloudy,230,2013-04-29 00:53:00
8:53 PM,70.0,44.1,39,29.71,10.0,North,15.0,20.7,N/A,,Mostly Cloudy,350,2013-04-29 01:53:00
9:38 PM,66.2,46.4,49,29.76,9.0,NW,17.3,-,0.00,Rain,Light Rain,310,2013-04-29 02:38:00
9:53 PM,61.0,52.0,72,29.79,7.0,NNW,13.8,31.1,0.06,Rain,Light Rain,330,2013-04-29 02:53:00
10:11 PM,60.8,53.6,77,29.72,9.0,NE,16.1,-,0.00,Rain,Light Rain,50,2013-04-29 03:11:00
10:20 PM,60.8,53.6,77,29.74,8.0,North,5.8,-,0.01,Rain,Light Rain,360,2013-04-29 03:20:00
10:53 PM,60.1,52.0,75,29.75,7.0,Calm,Calm,-,0.02,Rain,Light Rain,0,2013-04-29 03:53:00
11:53 PM,57.9,55.0,90,29.75,10.0,Calm,Calm,-,0.00,,Overcast,0,2013-04-29 04:53:00